Weather History for PAGM - July, 2013

Change the Weather History Date:

Sunday, July 28, 2013

  Actual Average Record
Temperature  
Mean Temperature 48 °F -  
Max Temperature 50 °F 48 °F 53 °F (2004)
Min Temperature 46 °F 42 °F 37 °F (2000)
Degree Days  
Heating Degree Days 17    
Moisture  
Dew Point 46 °F    
Average Humidity 92    
Maximum Humidity 100    
Minimum Humidity 87    
Precipitation  
Precipitation 0.00 in - - ()
Sea Level Pressure  
Sea Level Pressure 30.13 in    
Wind  
Wind Speed 18 mph (SSW)    
Max Wind Speed 22 mph    
Max Gust Speed 26 mph    
Visibility 2 miles    
Events      
Averages and records for this station are not official NWS values.
T = Trace of Precipitation, MM = Missing Value Source: NWS Daily Summary

Daily Weather History Graph

Daily Weather History Graph

Search for Another Location

Airport or City:

Trip Planner

Search our weather history database for the weather conditions in past years. The results will help you decide how hot, cold, wet, or windy it might be!

Date:

Astronomy

Jul. 28, 2013 Rise Set
Actual Time 6:26 AM AKDT 12:37 AM AKDT
Civil Twilight 4:50 AM AKDT 2:10 AM AKDT
Nautical Twilight Sun does not set Sun does not set
Astronomical Twilight Sun does not set Sun does not set
Moon 12:52 AM AKDT (7/28) 4:20 PM AKDT (7/28)
Length of Visible Light 21h 19m
Length of Day
18h 11m
Waning Gibbous, 59% of the Moon is Illuminated
Jul 28
Waning Gibbous
Jul 29
Last Quarter
Aug 6
New
Aug 14
First Quarter
Aug 20
Full

Hourly Weather History & Observations

Time (AKDT) Temp. Windchill Dew Point Humidity Pressure Visibility Wind Dir Wind Speed Gust Speed Precip Events Conditions
12:16 AM 48.2 °F - 46.4 °F 93% 30.11 in 1.2 mi South 18.4 mph - N/A   Overcast
12:36 AM 48.2 °F - 46.4 °F 93% 30.11 in 2.5 mi South 21.9 mph 26.5 mph N/A   Overcast
12:56 AM 48.2 °F - 46.4 °F 93% 30.12 in 1.5 mi South 20.7 mph - N/A   Overcast
1:16 AM 48.2 °F - 46.4 °F 93% 30.11 in 1.5 mi South 20.7 mph - N/A   Overcast
1:36 AM 48.2 °F - 46.4 °F 93% 30.11 in 1.2 mi South 19.6 mph - N/A   Overcast
1:56 AM 48.2 °F - 46.4 °F 93% 30.11 in 1.5 mi South 20.7 mph - N/A   Overcast
2:16 AM 48.2 °F - 46.4 °F 93% 30.11 in 0.5 mi South 18.4 mph - N/A   Overcast
2:36 AM 48.2 °F - 46.4 °F 93% 30.11 in 0.5 mi South 17.3 mph - N/A   Overcast
2:56 AM 48.2 °F - 46.4 °F 93% 30.11 in 0.8 mi South 17.3 mph - N/A   Overcast
3:16 AM 48.2 °F - 46.4 °F 93% 30.11 in 0.5 mi South 18.4 mph - N/A   Overcast
3:36 AM 48.2 °F - 46.4 °F 93% 30.10 in 0.5 mi South 18.4 mph - N/A   Overcast
3:56 AM 46.4 °F 39.0 °F 44.6 °F 93% 30.10 in 0.5 mi South 19.6 mph - N/A   Overcast
4:16 AM 46.4 °F 39.8 °F 44.6 °F 93% 30.10 in 0.5 mi South 16.1 mph - N/A   Overcast
4:36 AM 48.2 °F - 46.4 °F 93% 30.10 in 0.5 mi South 19.6 mph - N/A   Overcast
4:56 AM 48.2 °F - 46.4 °F 93% 30.10 in 1.0 mi South 17.3 mph - N/A   Overcast
5:16 AM 48.2 °F - 46.4 °F 93% 30.10 in 1.2 mi South 18.4 mph - N/A   Overcast
5:36 AM 48.2 °F - 46.4 °F 93% 30.10 in 0.8 mi South 18.4 mph - N/A   Overcast
5:56 AM 46.4 °F 39.2 °F 46.4 °F 100% 30.09 in 2.0 mi SSW 18.4 mph - N/A   Overcast
6:16 AM 48.2 °F - 46.4 °F 93% 30.10 in 2.5 mi SSW 18.4 mph - N/A   Overcast
6:36 AM 48.2 °F - 46.4 °F 93% 30.10 in 2.5 mi SSW 18.4 mph - N/A   Overcast
6:56 AM 48.2 °F - 46.4 °F 93% 30.10 in 1.2 mi SSW 17.3 mph 23.0 mph N/A   Overcast
7:16 AM 48.2 °F - 46.4 °F 93% 30.10 in 1.0 mi SSW 17.3 mph - N/A   Overcast
7:36 AM 48.2 °F - 46.4 °F 93% 30.10 in 0.8 mi SSW 17.3 mph - N/A   Overcast
7:56 AM 48.2 °F - 46.4 °F 93% 30.11 in 0.5 mi SSW 16.1 mph - N/A   Overcast
8:16 AM 48.2 °F - 46.4 °F 93% 30.11 in 1.0 mi SSW 15.0 mph - N/A   Overcast
8:36 AM 48.2 °F - 46.4 °F 93% 30.11 in 1.0 mi SSW 16.1 mph - N/A   Overcast
8:56 AM 48.2 °F - 46.4 °F 93% 30.11 in 1.0 mi SSW 16.1 mph - N/A   Overcast
9:16 AM 48.2 °F - 46.4 °F 93% 30.11 in 1.0 mi SSW 17.3 mph - N/A   Overcast
9:36 AM 48.2 °F - 46.4 °F 93% 30.11 in 1.8 mi SSW 16.1 mph - N/A   Overcast
9:56 AM 48.2 °F - 46.4 °F 93% 30.12 in 1.8 mi SSW 16.1 mph - N/A   Overcast
10:16 AM 48.2 °F - 46.4 °F 93% 30.12 in 1.2 mi SSW 16.1 mph - N/A   Overcast
10:36 AM 48.2 °F - 46.4 °F 93% 30.12 in 1.8 mi SSW 15.0 mph - N/A   Overcast
10:56 AM 48.2 °F - 46.4 °F 93% 30.12 in 1.5 mi SSW 17.3 mph - N/A   Overcast
11:16 AM 48.2 °F - 46.4 °F 93% 30.12 in 1.5 mi SSW 17.3 mph - N/A   Overcast
11:36 AM 48.2 °F - 46.4 °F 93% 30.12 in 2.0 mi SSW 18.4 mph - N/A   Overcast
11:56 AM 48.2 °F - 46.4 °F 93% 30.13 in 1.8 mi SSW 18.4 mph - N/A   Overcast
12:16 PM 48.2 °F - 46.4 °F 93% 30.13 in 1.5 mi SSW 18.4 mph - N/A   Overcast
12:36 PM 48.2 °F - 46.4 °F 93% 30.13 in 1.2 mi SSW 19.6 mph - N/A   Overcast
12:56 PM 48.2 °F - 46.4 °F 93% 30.13 in 2.0 mi SSW 18.4 mph - N/A   Overcast
1:16 PM 48.2 °F - 46.4 °F 93% 30.14 in 2.0 mi SSW 18.4 mph - N/A   Overcast
1:36 PM 48.2 °F - 46.4 °F 93% 30.14 in 3.0 mi SSW 18.4 mph - N/A   Overcast
1:56 PM 48.2 °F - 46.4 °F 93% 30.14 in 3.0 mi SSW 18.4 mph - N/A   Overcast
2:16 PM 50.0 °F - 46.4 °F 87% 30.14 in 4.0 mi SSW 18.4 mph - N/A   Overcast
2:36 PM 50.0 °F - 46.4 °F 87% 30.14 in 4.0 mi SSW 17.3 mph - N/A   Overcast
2:56 PM 50.0 °F - 46.4 °F 87% 30.14 in 1.5 mi SSW 18.4 mph - N/A   Overcast
3:16 PM 50.0 °F - 46.4 °F 87% 30.14 in 1.2 mi SW 16.1 mph - N/A   Overcast
3:36 PM 50.0 °F - 46.4 °F 87% 30.14 in 3.0 mi SW 15.0 mph - N/A   Overcast
3:56 PM 48.2 °F - 46.4 °F 93% 30.15 in 0.8 mi SW 16.1 mph - N/A   Overcast
4:16 PM 48.2 °F - 46.4 °F 93% 30.15 in 0.5 mi SSW 17.3 mph - N/A   Overcast
4:36 PM 48.2 °F - 46.4 °F 93% 30.15 in 0.8 mi SW 15.0 mph - N/A   Overcast
4:56 PM 48.2 °F - 46.4 °F 93% 30.15 in 1.0 mi SW 15.0 mph - N/A   Overcast
5:16 PM 50.0 °F - 46.4 °F 87% 30.15 in 0.5 mi SW 12.7 mph - N/A   Overcast
5:36 PM 48.2 °F - 46.4 °F 93% 30.15 in 1.0 mi SW 13.8 mph - N/A   Overcast
5:56 PM 48.2 °F - 46.4 °F 93% 30.15 in 0.5 mi SW 13.8 mph - N/A   Overcast
6:16 PM 50.0 °F - 46.4 °F 87% 30.15 in 1.0 mi SW 12.7 mph - N/A   Overcast
6:36 PM 50.0 °F - 46.4 °F 87% 30.15 in 0.8 mi SSW 13.8 mph - N/A   Overcast
6:56 PM 50.0 °F - 46.4 °F 87% 30.16 in 1.2 mi SSW 15.0 mph - N/A   Overcast
7:16 PM 48.2 °F - 46.4 °F 93% 30.16 in 0.5 mi SSW 13.8 mph - N/A   Overcast
7:36 PM 48.2 °F - 46.4 °F 93% 30.15 in 0.8 mi SSW 15.0 mph - N/A   Overcast
7:56 PM 48.2 °F - 46.4 °F 93% 30.15 in 1.0 mi SSW 15.0 mph - N/A   Overcast
8:16 PM 50.0 °F - 46.4 °F 87% 30.15 in 1.8 mi SSW 16.1 mph - N/A   Overcast
8:36 PM 50.0 °F - 46.4 °F 87% 30.15 in 1.8 mi SSW 15.0 mph - N/A   Overcast
8:56 PM 48.2 °F - 46.4 °F 93% 30.15 in 1.5 mi SSW 15.0 mph - N/A   Overcast
9:16 PM 48.2 °F - 46.4 °F 93% 30.15 in 1.2 mi SSW 13.8 mph - N/A   Overcast
9:36 PM 48.2 °F - 46.4 °F 93% 30.15 in 1.8 mi SSW 13.8 mph - N/A   Overcast
9:56 PM 48.2 °F - 46.4 °F 93% 30.15 in 2.5 mi SSW 13.8 mph - N/A   Overcast
10:16 PM 48.2 °F - 46.4 °F 93% 30.15 in 1.8 mi SSW 13.8 mph - N/A   Overcast
10:36 PM 48.2 °F - 46.4 °F 93% 30.15 in 1.2 mi SSW 13.8 mph - N/A   Overcast
10:56 PM 48.2 °F - 44.6 °F 87% 30.15 in 1.2 mi SSW 12.7 mph - N/A   Overcast
11:16 PM 48.2 °F - 44.6 °F 87% 30.15 in 3.0 mi SSW 13.8 mph - N/A   Overcast
11:36 PM 48.2 °F - 44.6 °F 87% 30.16 in 4.0 mi SSW 13.8 mph - N/A   Overcast
11:56 PM 48.2 °F - 46.4 °F 93% 30.16 in 2.0 mi SSW 16.1 mph - N/A   Overcast